Location: Newark
(59.4564°N, 26.6917°E)
Time: 10:25:29
(UTC+00:00)

SR - Pass Details

Date: 25 November 2019
Orbit: 573 x 882 km, 66.7° (Epoch: 15 December)

Event Time Altitude Azimuth Distance (km) Brightness Sun altitude
Rises 13:59:50 0° 251° (WSW) 3,335 ? -3.8°
Reaches altitude 10° 14:02:15 10° 256° (WSW) 2,443 ? -4.1°
Maximum altitude 14:07:53 57° 335° (NNW) 1,017 ? -4.7°
Drops below altitude 10° 14:13:45 10° 54° (NE) 2,551 ? -5.3°
Enters shadow 14:14:37 - 55° (NE) 2,867 ? -5.4°
Sets 14:16:20 0° 58° (ENE) 3,494 - -5.6°
